Location: Biltmore Gardens
(41.6070°N, 83.4666°W)
Time: 13:40:15
(UTC+00:00)

SPOT 3 Rocket - Pass Details

Date: 14 July 2020
Orbit: 779 x 795 km, 98.8° (Epoch: 05 August)

Event Time Altitude Azimuth Distance (km) Brightness Sun altitude
Exits shadow 01:51:50 - 166° (SSE) 3,090 6.2 -7.7°
Reaches altitude 10° 01:53:41 10° 167° (SSE) 2,353 5.6 -8.0°
Maximum altitude 01:58:54 84° 256° (WSW) 805 3.7 -8.7°
Drops below altitude 10° 02:04:09 10° 345° (NNW) 2,372 7.0 -9.5°
Sets 02:06:30 0° 346° (NNW) 3,306 7.8 -9.8°
